• In Deutschland
  • Länderverzeichnis
  • Für 7 Tage
  • Wassertemperatur
  • Satellitenkarten
  • Wetterkarte
  • Widgets
  • user-avatar
    Anmelden

    Stündliche Wetter Unterschleißheim

    Heute, 20 Februar, Dienstag

    Zeit Temperatur Niederschläge Wind Luftdruck Luftfeuchtigkeit
    00:00 -4°C° 0 mm 0 m/S 719 mmHg 92%
    01:00 -4°C° 0 mm 0 m/S 718 mmHg 93%
    02:00 -4°C° 0 mm 0 m/S 718 mmHg 93%
    03:00 -4°C° 0 mm 0 m/S 718 mmHg 94%
    04:00 -4°C° 0 mm 0 m/S 718 mmHg 94%
    05:00 -4°C° 0 mm 0 m/S 718 mmHg 94%
    06:00 -4°C° 0 mm 0 m/S 718 mmHg 94%
    07:00 -2°C° 0 mm 1 m/S 718 mmHg 95%
    08:00 -2°C° 0,1 mm 1 m/S 718 mmHg 92%
    09:00 -1°C° 0,1 mm 1 m/S 718 mmHg 90%
    10:00 -1°C° 0,1 mm 1 m/S 718 mmHg 87%
    11:00 0°C° 0,1 mm 1 m/S 718 mmHg 85%
    12:00 0°C° 0,1 mm 1 m/S 717 mmHg 83%
    13:00 +1°C° 0,1 mm 1 m/S 717 mmHg 80%
    14:00 +1°C° 0,1 mm 1 m/S 717 mmHg 81%
    15:00 +1°C° 0,1 mm 1 m/S 717 mmHg 81%
    16:00 -1°C° 0,1 mm 2 m/S 717 mmHg 82%
    17:00 0°C° 0,1 mm 1 m/S 717 mmHg 85%
    18:00 -1°C° 0,1 mm 1 m/S 717 mmHg 89%
    19:00 -1°C° 0,1 mm 1 m/S 718 mmHg 93%
    20:00 -2°C° 0,1 mm 1 m/S 718 mmHg 94%
    21:00 -2°C° 0,1 mm 1 m/S 718 mmHg 95%
    22:00 -2°C° 0,1 mm 1 m/S 719 mmHg 96%
    23:00 -3°C° 0 mm 1 m/S 719 mmHg 96%

    Morgen, 21 Februar, Mittwoch

    Zeit Temperatur Niederschläge Wind Luftdruck Luftfeuchtigkeit
    00:00 -3°C° 0 mm 1 m/S 719 mmHg 96%
    01:00 -3°C° 0 mm 1 m/S 719 mmHg 96%
    02:00 -3°C° 0 mm 1 m/S 719 mmHg 95%
    03:00 -3°C° 0 mm 1 m/S 719 mmHg 95%
    04:00 -3°C° 0 mm 1 m/S 720 mmHg 94%
    05:00 -3°C° 0 mm 1 m/S 720 mmHg 94%
    06:00 -3°C° 0 mm 1 m/S 720 mmHg 94%
    07:00 -5°C° 0 mm 2 m/S 720 mmHg 94%
    08:00 -4°C° 0,1 mm 2 m/S 720 mmHg 91%
    09:00 -3°C° 0,1 mm 2 m/S 720 mmHg 88%
    10:00 -2°C° 0,1 mm 2 m/S 720 mmHg 85%
    11:00 -2°C° 0 mm 2 m/S 720 mmHg 83%
    12:00 -1°C° 0 mm 3 m/S 719 mmHg 80%
    13:00 0°C° 0 mm 3 m/S 719 mmHg 78%
    14:00 0°C° 0 mm 3 m/S 719 mmHg 77%
    15:00 0°C° 0 mm 3 m/S 719 mmHg 77%
    16:00 0°C° 0 mm 3 m/S 719 mmHg 76%
    17:00 -1°C° 0 mm 3 m/S 719 mmHg 79%
    18:00 -2°C° 0 mm 3 m/S 719 mmHg 82%
    19:00 -4°C° 0 mm 3 m/S 719 mmHg 85%
    20:00 -4°C° 0 mm 3 m/S 719 mmHg 86%
    21:00 -5°C° 0 mm 3 m/S 719 mmHg 87%
    22:00 -5°C° 0 mm 3 m/S 720 mmHg 87%
    23:00 -5°C° 0 mm 3 m/S 719 mmHg 87%

    übermorgen, 22 Februar, Donnerstag

    Zeit Temperatur Niederschläge Wind Luftdruck Luftfeuchtigkeit
    00:00 -6°C° 0 mm 3 m/S 719 mmHg 87%
    01:00 -6°C° 0 mm 3 m/S 719 mmHg 87%
    02:00 -7°C° 0 mm 4 m/S 719 mmHg 87%
    03:00 -7°C° 0 mm 4 m/S 718 mmHg 87%
    04:00 -7°C° 0 mm 4 m/S 718 mmHg 86%
    05:00 -7°C° 0 mm 4 m/S 718 mmHg 86%
    06:00 -7°C° 0 mm 4 m/S 718 mmHg 85%
    07:00 -7°C° 0 mm 4 m/S 718 mmHg 85%
    08:00 -7°C° 0,1 mm 5 m/S 718 mmHg 83%
    09:00 -6°C° 0,1 mm 5 m/S 718 mmHg 81%
    10:00 -5°C° 0,1 mm 5 m/S 718 mmHg 79%
    11:00 -5°C° 0,1 mm 5 m/S 718 mmHg 78%
    12:00 -4°C° 0,1 mm 6 m/S 717 mmHg 76%
    13:00 -3°C° 0,1 mm 6 m/S 717 mmHg 74%
    14:00 -3°C° 0 mm 6 m/S 717 mmHg 75%
    15:00 -2°C° 0 mm 5 m/S 717 mmHg 76%
    16:00 -2°C° 0 mm 5 m/S 717 mmHg 77%
    17:00 -4°C° 0 mm 5 m/S 717 mmHg 79%
    18:00 -4°C° 0 mm 5 m/S 717 mmHg 81%
    19:00 -5°C° 0 mm 5 m/S 718 mmHg 83%
    20:00 -5°C° 0 mm 5 m/S 718 mmHg 83%
    21:00 -5°C° 0 mm 5 m/S 718 mmHg 83%
    22:00 -5°C° 0 mm 5 m/S 718 mmHg 84%
    23:00 -6°C° 0 mm 5 m/S 718 mmHg 84%

    23 Februar, Freitag

    Zeit Temperatur Niederschläge Wind Luftdruck Luftfeuchtigkeit
    00:00 -6°C° 0 mm 5 m/S 718 mmHg 84%
    01:00 -5°C° 0 mm 4 m/S 718 mmHg 84%
    02:00 -5°C° 0 mm 4 m/S 718 mmHg 84%
    03:00 -5°C° 0 mm 4 m/S 718 mmHg 84%
    04:00 -5°C° 0 mm 4 m/S 718 mmHg 84%
    05:00 -5°C° 0 mm 4 m/S 718 mmHg 84%
    06:00 -7°C° 0 mm 4 m/S 718 mmHg 84%
    07:00 -7°C° 0 mm 4 m/S 719 mmHg 84%
    08:00 -5°C° 0 mm 4 m/S 719 mmHg 82%
    09:00 -6°C° 0 mm 5 m/S 719 mmHg 80%
    10:00 -5°C° 0 mm 5 m/S 719 mmHg 78%
    11:00 -4°C° 0 mm 5 m/S 719 mmHg 76%
    12:00 -4°C° 0 mm 5 m/S 719 mmHg 74%
    13:00 -2°C° 0 mm 5 m/S 718 mmHg 72%
    14:00 -2°C° 0 mm 5 m/S 718 mmHg 72%
    15:00 -1°C° 0 mm 5 m/S 718 mmHg 72%
    16:00 -1°C° 0 mm 5 m/S 718 mmHg 72%
    17:00 -2°C° 0 mm 5 m/S 719 mmHg 75%
    18:00 -4°C° 0 mm 5 m/S 719 mmHg 77%
    19:00 -3°C° 0 mm 4 m/S 719 mmHg 80%
    20:00 -5°C° 0 mm 5 m/S 720 mmHg 80%
    21:00 -5°C° 0 mm 5 m/S 720 mmHg 81%
    22:00 -6°C° 0 mm 5 m/S 720 mmHg 81%
    23:00 -6°C° 0 mm 5 m/S 720 mmHg 81%

    24 Februar, Samstag

    Zeit Temperatur Niederschläge Wind Luftdruck Luftfeuchtigkeit
    00:00 -6°C° 0 mm 5 m/S 720 mmHg 81%
    01:00 -6°C° 0 mm 5 m/S 720 mmHg 80%
    02:00 -7°C° 0 mm 5 m/S 720 mmHg 79%
    03:00 -7°C° 0 mm 5 m/S 720 mmHg 78%
    04:00 -7°C° 0 mm 5 m/S 720 mmHg 77%
    05:00 -7°C° 0 mm 5 m/S 720 mmHg 77%
    06:00 -7°C° 0 mm 5 m/S 720 mmHg 76%
    07:00 -8°C° 0 mm 5 m/S 720 mmHg 75%
    08:00 -8°C° 0 mm 6 m/S 720 mmHg 70%
    09:00 -6°C° 0 mm 6 m/S 720 mmHg 66%
    10:00 -6°C° 0 mm 7 m/S 720 mmHg 62%
    11:00 -4°C° 0 mm 7 m/S 720 mmHg 58%
    12:00 -4°C° 0 mm 7 m/S 720 mmHg 55%
    13:00 -3°C° 0 mm 7 m/S 720 mmHg 52%
    14:00 -3°C° 0 mm 7 m/S 720 mmHg 52%
    15:00 -3°C° 0 mm 7 m/S 720 mmHg 53%
    16:00 -3°C° 0 mm 7 m/S 719 mmHg 53%
    17:00 -5°C° 0 mm 6 m/S 720 mmHg 56%
    18:00 -6°C° 0 mm 6 m/S 720 mmHg 58%
    19:00 -8°C° 0 mm 6 m/S 720 mmHg 61%
    20:00 -8°C° 0 mm 6 m/S 720 mmHg 60%
    21:00 -9°C° 0 mm 6 m/S 721 mmHg 60%
    22:00 -9°C° 0 mm 6 m/S 721 mmHg 59%
    23:00 -10°C° 0 mm 6 m/S 721 mmHg 59%

    25 Februar, Sonntag

    Zeit Temperatur Niederschläge Wind Luftdruck Luftfeuchtigkeit
    00:00 -10°C° 0 mm 6 m/S 721 mmHg 59%
    01:00 -10°C° 0 mm 6 m/S 721 mmHg 59%
    02:00 -11°C° 0 mm 5 m/S 721 mmHg 61%
    03:00 -11°C° 0 mm 5 m/S 721 mmHg 62%
    04:00 -12°C° 0 mm 5 m/S 720 mmHg 63%
    05:00 -12°C° 0 mm 5 m/S 720 mmHg 64%
    06:00 -13°C° 0 mm 5 m/S 721 mmHg 65%
    07:00 -13°C° 0 mm 5 m/S 721 mmHg 65%
    08:00 -12°C° 0 mm 5 m/S 721 mmHg 63%
    09:00 -12°C° 0 mm 5 m/S 721 mmHg 62%
    10:00 -11°C° 0 mm 5 m/S 721 mmHg 60%
    11:00 -10°C° 0 mm 5 m/S 720 mmHg 58%
    12:00 -10°C° 0 mm 5 m/S 720 mmHg 55%
    13:00 -8°C° 0 mm 5 m/S 720 mmHg 53%
    14:00 -8°C° 0 mm 5 m/S 720 mmHg 53%
    15:00 -8°C° 0 mm 5 m/S 720 mmHg 53%
    16:00 -9°C° 0 mm 6 m/S 720 mmHg 52%
    17:00 -8°C° 0 mm 5 m/S 720 mmHg 55%
    18:00 -10°C° 0 mm 5 m/S 720 mmHg 58%
    19:00 -11°C° 0 mm 5 m/S 721 mmHg 62%
    20:00 -11°C° 0 mm 5 m/S 721 mmHg 63%
    21:00 -11°C° 0 mm 5 m/S 721 mmHg 64%
    22:00 -12°C° 0 mm 5 m/S 721 mmHg 65%
    23:00 -12°C° 0 mm 5 m/S 721 mmHg 65%
    Mehr zeigen